Showing default

ANGOSAT 2, 54033

Orbit data source: Space-Track

ANGOSAT 2, 54033 is a payload satellite owned by GGPEN (AO) in GEO that was launched on Wed, 12 Oct 2022 UTC via a PROTON-M/DM-3 launch vehicle from the Tyuratam Missile And Space Complex (TTMTR). Payload-class satellites include a variety of spacecraft equipped with specific instruments for various scientific and technological missions. These include communications satellites like Starlink; space stations such as the ISS; scientific satellites like the Hubble; Earth observation satellites from companies like Planet Labs, Umbra, and HawkEye 360; GPS; miniature CubeSats for education and research; and military/defense satellites.

Not visible in the next 10 days
Identifier
54033, 2022-131A
Orbit
GEO
Last TLE update
5 hours ago
Origin
Manufacturer
Resehetnev ISS
Mission
Operational Civil Communications
Bus & Motor
EKSPRESS-1000N, AOCS
Mass
2,150 kg wet, ~1,800 kg dry
Launch date (UTC)
2022-10-12 (3 years ago)
Launch vehicle
PROTON-M/DM-3
Launch site
Tyuratam Missile And Space Complex (TTMTR)
Object type
Payload
Rocket body
Debris
Shape & HBR
Box + 2 Pan, 15 m
Radar Cross Section
16.987 m², Large (>1 m²)

Expand to show TLE details & history

TLE from 5 hours ago
0 ANGOSAT 2
1 54033U 22131A   25186.49784626  .00000152  00000-0  00000+0 0  9999
2 54033   0.0335 150.1264 0000674  92.2027 243.6238  1.00272895 10009
Epoch: 2025-07-05T11:56Z
TLE epoch observation values (Epoch: 2025-07-05T11:56:53.916Z)
Latitude
0.0152°
Longitude
22.98906°
Altitude
35,787.047 km
Speed
3.075 km/s
True Right ascension
08h 23m 47s
True Declination
0° 00' 55"
Sunlit
Object was in daylight at epoch
Visualization orbit readout
Latitude
0.01023°
Longitude
105.09144°
Altitude
35,783.399 km
Speed
3.075 km/s
Apparent Right ascension
14h 11m 42s
Apparent Declination
-5° 07' 12"
Sunlit
Object is in daylight
Visualization observer readout
Local Sidereal Time
05:19:45
Azimuth
63.246° ENE
Elevation
-35.319°
Doppler factor
1
Orbital elements
Apogee altitude
35,790.196 km
Perigee altitude
35,784.512 km
Semi-major axis
42,165.491 km
Eccentricity
0.00007
Inclination
0.0335°
RAAN
150.1264°
Arg. of periapsis
92.2027°
True anomaly
Unknown
Mean anomaly
243.6238°
Eccentric anomaly
Unknown
Mean motion
0.25067 °/min
Orbital period
1,436.13 mins
BSTAR
0
Loading historical data...
54033 neighbors
Loading maneuver chart data...
Loading SW <> Apogee altitude chart data...
Loading historical data...
Loading historical data...
Loading historical data...
Loading historical data...
Loading historical data...
Loading historical data...
Loading historical data...
Other satellites on launch #131 in the year 2022 (2022-10-12 UTC)

ANGOSAT 2 Visibility

Observer location: undefined°, undefined°

ANGOSAT 2 is likely not visible in the next few days
Span
Click to sort rows by Start time (UTC) header in descending order
Start Az.
Max El. time (UTC)
Max El. Az.
Max El.
End time (UTC)
End Az.
|